Location: Béaulencourt
(50.0796°N, 2.8795°E)
Time: 00:49:46
(UTC+00:00)

Cosmos 1743 Rocket - Pass Details

Date: 20 January 2026
Orbit: 597 x 626 km, 82.6° (Epoch: 18 February)

Event Time Altitude Azimuth Distance (km) Brightness Sun altitude
Rises 05:17:13 0° 193° (SSW) 2,896 6.9 -22.0°
Reaches altitude 10° 05:19:27 10° 195° (SSW) 1,991 6.1 -21.6°
Maximum altitude 05:23:51 75° 281° (W) 648 3.4 -20.9°
Drops below altitude 10° 05:28:17 10° 7° (N) 1,993 6.2 -20.2°
Sets 05:30:31 0° 9° (N) 2,899 7.0 -19.9°
